This is the latest recevied weather packets stored in our database for station/object JS2WAD-13. If no packets are shown the sender has not sent any weather packets the latest 10 day(s).
| Time | Temp. | Humidity | Pressure | Rain* | Wind** | Luminosity | Snow |
|---|---|---|---|---|---|---|---|
| 1777848988 | 18.33° C | 95% | 895.4 hPa | 0 mm | - | 95 W/m² | - |
| 1777848688 | 18.33° C | 95% | 895.5 hPa | 0 mm | - | 95 W/m² | - |
| 1777848388 | 18.33° C | 95% | 895.3 hPa | 0 mm | - | 81 W/m² | - |
| 1777848088 | 18.33° C | 95% | 895.3 hPa | 0 mm | - | 77 W/m² | - |
| 1777847788 | 18.33° C | 95% | 895.4 hPa | 0 mm | - | 76 W/m² | - |
| 1777847488 | 18.33° C | 95% | 895.3 hPa | 0 mm | - | 70 W/m² | - |
| 1777847188 | 18.33° C | 95% | 895.2 hPa | 0 mm | - | 63 W/m² | - |
| 1777846888 | 18.33° C | 95% | 895 hPa | 0 mm | - | 63 W/m² | - |
| 1777846588 | 17.78° C | 95% | 894.8 hPa | 0 mm | - | 67 W/m² | - |
| 1777846288 | 17.78° C | 95% | 894.8 hPa | 0 mm | - | 60 W/m² | - |
| 1777845988 | 17.78° C | 95% | 894.6 hPa | 0 mm | - | 54 W/m² | - |
| 1777845688 | 17.78° C | 95% | 894.5 hPa | 0 mm | - | 62 W/m² | - |
| 1777845388 | 17.78° C | 95% | 894.6 hPa | 0 mm | - | 54 W/m² | - |
| 1777845088 | 17.78° C | 95% | 894.6 hPa | 0 mm | - | 35 W/m² | - |
| 1777844788 | 17.78° C | 95% | 894.6 hPa | 0 mm | - | 28 W/m² | - |
| 1777844488 | 18.33° C | 95% | 894.4 hPa | 0 mm | - | 21 W/m² | - |
| 1777844188 | 18.33° C | 95% | 894.3 hPa | 0 mm | - | 21 W/m² | - |
| 1777843888 | 18.33° C | 96% | 894.3 hPa | 0 mm | - | 16 W/m² | - |
| 1777843588 | 18.33° C | 96% | 894.2 hPa | 0 mm | - | 16 W/m² | - |
| 1777843288 | 18.33° C | 96% | 894.3 hPa | 0 mm | - | 18 W/m² | - |
| 1777842988 | 18.33° C | 96% | 894.4 hPa | 0 mm | - | 11 W/m² | - |
| 1777842688 | 18.33° C | 96% | 894.2 hPa | 0 mm | - | 11 W/m² | - |
| 1777842388 | 18.33° C | 96% | 894.1 hPa | 0 mm | - | 11 W/m² | - |
| 1777842088 | 18.33° C | 95% | 894 hPa | 0 mm | - | 12 W/m² | - |
| 1777841788 | 18.33° C | 95% | 894 hPa | 0 mm | - | 5 W/m² | - |
* Rain latest hour (hover to see other rain measurements)
** Current wind speed in m/s (hover to see current wind gust speed)